TimePDT,TemperatureF,Dew PointF,Humidity,Sea Level PressureIn,VisibilityMPH,Wind Direction,Wind SpeedMPH,Gust SpeedMPH,PrecipitationIn,Events,Conditions,WindDirDegrees,DateUTC
12:15 AM,50.0,37.4,62,30.32,10.0,NE,9.2,-,0.00,,Clear,40,2012-10-03 07:15:00
1:35 AM,48.2,32.0,54,30.34,10.0,NNE,8.1,-,0.00,,Clear,30,2012-10-03 08:35:00
2:35 AM,44.6,32.0,61,30.35,10.0,North,9.2,-,0.00,,Clear,10,2012-10-03 09:35:00
3:55 AM,46.4,32.0,57,30.36,10.0,North,11.5,-,0.00,,Clear,10,2012-10-03 10:55:00
4:15 AM,46.4,32.0,57,30.36,10.0,NNE,10.4,-,0.00,,Clear,20,2012-10-03 11:15:00
4:35 AM,48.2,32.0,54,30.37,10.0,North,11.5,-,0.00,,Clear,360,2012-10-03 11:35:00
6:15 AM,44.6,32.0,61,30.38,10.0,North,5.8,-,0.00,,Clear,10,2012-10-03 13:15:00
6:35 AM,42.8,32.0,66,30.39,10.0,North,8.1,-,0.00,,Clear,10,2012-10-03 13:35:00
6:55 AM,44.6,32.0,61,30.39,10.0,NNE,5.8,-,0.00,,Clear,20,2012-10-03 13:55:00
7:55 AM,44.6,32.0,61,30.39,10.0,East,4.6,-,0.00,,Clear,80,2012-10-03 14:55:00
8:15 AM,42.8,32.0,66,30.40,4.0,NE,4.6,-,0.00,,Clear,40,2012-10-03 15:15:00
8:35 AM,46.4,33.8,62,30.41,5.0,Calm,Calm,-,0.00,,Clear,0,2012-10-03 15:35:00
8:55 AM,48.2,33.8,58,30.41,10.0,North,3.5,-,0.00,,Clear,10,2012-10-03 15:55:00
9:15 AM,50.0,32.0,50,30.41,10.0,Calm,Calm,-,0.00,,Clear,0,2012-10-03 16:15:00
9:35 AM,51.8,33.8,50,30.41,10.0,East,3.5,-,0.00,,Clear,80,2012-10-03 16:35:00
9:55 AM,53.6,33.8,47,30.42,10.0,East,4.6,-,0.00,,Clear,80,2012-10-03 16:55:00
10:15 AM,53.6,33.8,47,30.42,10.0,Calm,Calm,-,0.00,,Clear,0,2012-10-03 17:15:00
10:35 AM,55.4,35.6,47,30.42,10.0,East,3.5,-,0.00,,Clear,90,2012-10-03 17:35:00
10:55 AM,57.2,33.8,41,30.41,10.0,North,3.5,-,0.00,,Clear,350,2012-10-03 17:55:00
11:15 AM,59.0,32.0,36,30.42,10.0,NNW,5.8,-,0.00,,Clear,330,2012-10-03 18:15:00
11:35 AM,60.8,32.0,34,30.41,10.0,NW,5.8,-,0.00,,Clear,320,2012-10-03 18:35:00
11:55 AM,60.8,30.2,31,30.41,10.0,NNW,4.6,-,0.00,,Clear,330,2012-10-03 18:55:00
12:15 PM,62.6,32.0,32,30.40,10.0,WNW,4.6,-,0.00,,Clear,300,2012-10-03 19:15:00
12:35 PM,62.6,32.0,32,30.40,10.0,WNW,8.1,-,0.00,,Clear,300,2012-10-03 19:35:00
12:55 PM,62.6,32.0,32,30.39,10.0,NNW,5.8,-,0.00,,Clear,340,2012-10-03 19:55:00
1:15 PM,62.6,32.0,32,30.39,10.0,North,6.9,-,0.00,,Clear,350,2012-10-03 20:15:00
1:35 PM,64.4,33.8,32,30.38,10.0,WNW,10.4,-,0.00,,Clear,300,2012-10-03 20:35:00
1:55 PM,62.6,37.4,39,30.37,10.0,WNW,9.2,-,0.00,,Clear,300,2012-10-03 20:55:00
2:15 PM,62.6,39.2,42,30.37,10.0,WNW,11.5,-,0.00,,Clear,300,2012-10-03 21:15:00
2:35 PM,62.6,39.2,42,30.36,10.0,NW,10.4,-,0.00,,Clear,310,2012-10-03 21:35:00
2:55 PM,62.6,39.2,42,30.36,5.0,NW,15.0,-,0.00,,Clear,310,2012-10-03 21:55:00
3:15 PM,62.6,39.2,42,30.35,9.0,WNW,12.7,19.6,0.00,,Clear,300,2012-10-03 22:15:00
3:35 PM,62.6,39.2,42,30.35,10.0,NW,15.0,19.6,0.00,,Clear,310,2012-10-03 22:35:00
3:55 PM,62.6,39.2,42,30.34,10.0,NW,13.8,18.4,0.00,,Clear,310,2012-10-03 22:55:00
4:15 PM,62.6,39.2,42,30.34,10.0,NW,13.8,-,0.00,,Clear,310,2012-10-03 23:15:00
4:35 PM,60.8,39.2,45,30.33,10.0,NW,15.0,-,0.00,,Clear,320,2012-10-03 23:35:00
4:55 PM,60.8,39.2,45,30.33,9.0,NW,15.0,18.4,0.00,,Clear,320,2012-10-03 23:55:00
5:15 PM,59.0,39.2,48,30.32,10.0,NW,15.0,-,0.00,,Clear,320,2012-10-04 00:15:00
5:35 PM,57.2,41.0,55,30.32,10.0,NW,15.0,-,0.00,,Clear,320,2012-10-04 00:35:00
5:55 PM,57.2,39.2,51,30.32,10.0,NNW,15.0,-,0.00,,Clear,330,2012-10-04 00:55:00
6:15 PM,55.4,37.4,51,30.32,10.0,NW,17.3,24.2,0.00,,Clear,320,2012-10-04 01:15:00
6:35 PM,55.4,39.2,54,30.31,10.0,NW,13.8,-,0.00,,Clear,320,2012-10-04 01:35:00
6:55 PM,55.4,37.4,51,30.31,10.0,NW,13.8,-,0.00,,Clear,320,2012-10-04 01:55:00
7:15 PM,55.4,39.2,54,30.31,10.0,NW,13.8,-,0.00,,Clear,320,2012-10-04 02:15:00
7:35 PM,55.4,37.4,51,30.31,10.0,NW,15.0,-,0.00,,Clear,320,2012-10-04 02:35:00
7:55 PM,53.6,39.2,58,30.30,10.0,NW,12.7,19.6,0.00,,Clear,320,2012-10-04 02:55:00
8:15 PM,53.6,37.4,54,30.30,10.0,NW,12.7,-,0.00,,Clear,320,2012-10-04 03:15:00
8:35 PM,53.6,35.6,51,30.30,10.0,NNW,11.5,-,0.00,,Clear,330,2012-10-04 03:35:00
8:55 PM,53.6,37.4,54,30.30,10.0,NNW,10.4,-,0.00,,Clear,330,2012-10-04 03:55:00
9:15 PM,51.8,37.4,58,30.30,10.0,NW,8.1,-,0.00,,Clear,310,2012-10-04 04:15:00
9:35 PM,48.2,37.4,66,30.30,10.0,NNW,5.8,-,0.00,,Clear,330,2012-10-04 04:35:00
9:55 PM,48.2,37.4,66,30.30,10.0,North,5.8,-,0.00,,Clear,360,2012-10-04 04:55:00
10:15 PM,48.2,39.2,71,30.31,10.0,NNW,5.8,-,0.00,,Clear,330,2012-10-04 05:15:00
10:35 PM,46.4,37.4,71,30.31,10.0,WNW,6.9,-,0.00,,Clear,300,2012-10-04 05:35:00
11:15 PM,46.4,37.4,71,30.31,10.0,Calm,Calm,-,0.00,,Clear,0,2012-10-04 06:15:00
11:35 PM,46.4,39.2,76,30.31,10.0,Calm,Calm,-,0.00,,Clear,0,2012-10-04 06:35:00
11:55 PM,44.6,39.2,81,30.31,10.0,NNW,3.5,-,0.00,,Clear,330,2012-10-04 06:55:00